RADFXSAT (FOX-1B)

Last updated on Sun Aug 09 2026 00:03:15 GMT+0000 (Coordinated Universal Time)

1 43017U 17073E 26220.52012525 .00005317 00000+0 22899-3 0 9995 2 43017 97.4637 86.6690 0149522 147.2918 213.7682 15.13384701473302
UTC large
Height (km)
Speed (km/s)
/
Latitude / Longitude
Inclination (degrees)
Orbital Period (minutes)
Azimuth
Elevation
Range (km)
Doppler Factor

Next 0 passes for location: London (51.5072 / 0.1276)

No passes found over London.
RADFXSAT (FOX-1B)